CDT,Max TemperatureF,Mean TemperatureF,Min TemperatureF,Max Dew PointF,MeanDew PointF,Min DewpointF,Max Humidity, Mean Humidity, Min Humidity, Max Sea Level PressureIn, Mean Sea Level PressureIn, Min Sea Level PressureIn, Max VisibilityMiles, Mean VisibilityMiles, Min VisibilityMiles, Max Wind SpeedMPH, Mean Wind SpeedMPH, Max Gust SpeedMPH,PrecipitationIn, CloudCover, Events, WindDirDegrees
2013-4-1,58,46,33,45,38,28,100,70,40,30.12,29.98,29.91,10,5,0,18,6,25,0.00,3,Fog,291
2013-4-2,51,41,31,29,21,12,64,43,21,30.23,30.19,30.12,10,10,10,13,5,18,T,3,Rain,335
2013-4-3,47,39,31,23,19,17,58,45,31,30.28,30.24,30.19,10,10,10,12,6,,0.00,1,,26
2013-4-4,47,43,38,40,38,35,100,93,85,30.10,30.03,29.96,10,6,2,9,3,14,0.64,8,Rain,101
2013-4-5,61,50,38,41,36,28,100,66,32,30.12,30.04,29.98,10,7,0,16,6,22,0.00,3,Fog,345
2013-4-6,68,51,34,36,32,26,85,55,24,30.17,30.11,30.05,10,10,10,13,6,20,0.00,0,,173
2013-4-7,71,62,53,42,39,31,61,42,23,30.12,30.06,30.02,10,10,10,16,7,25,0.00,1,,189
2013-4-8,72,63,54,52,48,43,72,58,44,30.07,30.03,29.99,10,10,10,16,6,25,0.00,4,,181
2013-4-9,77,65,52,54,51,48,89,66,43,30.15,30.09,30.03,10,10,10,15,5,29,0.00,0,,186
2013-4-10,82,72,62,54,52,50,67,51,35,30.09,29.98,29.86,10,10,10,14,6,25,0.00,0,,181
2013-4-11,74,65,56,63,56,52,93,73,53,29.87,29.73,29.55,10,7,0,26,8,38,1.26,5,Fog-Rain-Thunderstorm,184
2013-4-12,58,50,42,57,43,34,100,72,43,29.98,29.80,29.62,10,8,2,5,7,8,0.05,5,Rain-Thunderstorm,275
2013-4-13,64,51,37,38,34,29,92,60,27,30.09,30.04,29.98,10,10,10,10,5,20,0.00,0,,306
2013-4-14,67,55,43,50,43,33,89,59,29,30.05,29.98,29.92,10,10,6,22,4,33,0.04,4,Rain,128
2013-4-15,74,63,52,54,52,49,93,71,49,30.07,30.00,29.91,10,10,9,23,6,31,0.00,5,,175
2013-4-16,77,70,62,61,58,55,78,69,60,30.25,30.16,30.07,10,10,10,14,7,31,0.00,3,,178
2013-4-17,78,70,61,66,59,53,84,74,63,30.23,30.15,30.02,10,9,2,21,5,28,0.06,4,Rain-Thunderstorm,145
2013-4-18,77,69,60,58,55,51,90,65,40,30.07,29.96,29.69,10,10,10,26,11,44,0.00,3,,170
2013-4-19,70,52,33,63,47,26,93,76,59,30.13,29.83,29.63,10,6,0,23,10,43,1.38,7,Fog-Rain,253
2013-4-20,56,43,29,31,27,24,100,65,30,30.31,30.22,30.14,10,10,9,14,6,21,0.00,0,,329
2013-4-21,64,51,38,34,29,27,70,48,25,30.38,30.31,30.26,10,10,10,9,3,15,0.00,0,,70
2013-4-22,67,55,43,38,36,33,71,50,29,30.31,30.23,30.15,10,10,10,12,4,18,0.00,0,,142
2013-4-23,70,60,50,45,41,35,71,50,38,30.19,30.10,30.02,10,10,10,9,5,20,0.00,0,,172
2013-4-24,64,52,39,56,47,37,100,86,58,30.25,30.09,29.95,10,7,0,15,9,31,0.33,7,Fog-Rain,277
2013-4-25,61,49,36,37,30,22,86,54,22,30.38,30.32,30.25,10,10,10,26,5,32,0.00,2,,348
2013-4-26,63,49,35,42,34,27,92,60,27,30.41,30.37,30.30,10,8,0,16,3,38,0.00,4,Fog,55
2013-4-27,55,52,49,50,48,45,96,90,83,30.34,30.24,30.03,10,5,1,9,5,18,1.70,8,Rain,138
2013-4-28,58,56,53,55,53,50,100,92,83,30.08,30.01,29.93,10,7,1,20,7,32,1.79,8,Rain-Thunderstorm,149
2013-4-29,69,60,52,54,53,50,100,79,58,30.05,30.01,29.94,10,6,1,8,4,,0.20,7,Rain,263
2013-4-30,74,61,47,54,48,42,100,67,33,30.09,30.03,29.97,10,8,1,9,2,15,0.00,1,,132